Regional Weather Roundup
Issued by NWS

Home | Current Version | Previous Version | Graphics & Text | Print | Product List | Glossary On
Versions: 1 2 3 4 5 6 7 8 9 10 11 12 13 14 15 16 17 18 19 20 21 22 23 24 25 26 27 28
000
ASUS45 KSLC 191110
RWRUT

UTAH REGIONAL WEATHER ROUNDUP
NATIONAL WEATHER SERVICE SALT LAKE CITY UT
500 AM MDT SAT APR 19 2014

UTZ001>011-023>025-191200-

NORTHERN UTAH

CITY           SKY/WX    TMP DP  RH WIND       PRES   REMARKS
HILL AFB       MOCLDY    48  36  64 SE12      29.98R
LOGAN          CLEAR     37  33  85 CALM      30.02R
OGDEN          PTCLDY    47  38  71 SE5       29.97R
PROVO AIRPORT  MOCLDY    45  37  76 S6        30.01R
SALT LAKE CITY PTCLDY    46  46 100 W5        29.98R
VERNAL         MOCLDY    53  33  46 E7        30.00R
WENDOVER       CLEAR     48  34  57 CALM      29.98S
HEBER CITY     CLOUDY    39  32  75 W5        30.03R
WEST JORDAN    MOCLDY    46  39  76 W6        29.99R

$$

UTZ012>022-026-027-191200-

SOUTHERN UTAH

CITY           SKY/WX    TMP DP  RH WIND       PRES   REMARKS
BRYCE CANYON   CLOUDY    37  30  75 CALM      30.13R
CEDAR CITY     MOCLDY    45  29  53 W3        30.03R
MILFORD        CLOUDY    47  27  45 S6        30.00R
MOAB/CYNLANDS  LGT RAIN  53  47  79 NE7       30.02R
PRICE          CLOUDY    53  28  38 E7        30.02R
ST GEORGE      MOSUNNY   61  36  39 E14       29.97R
KANAB            N/A     52  37  58 SW6       30.09R

$$

REGIONAL REPORTS     COLORADO/ARIZONA

CITY           SKY/WX    TMP DP  RH WIND       PRES   REMARKS
CRAIG, CO      CLOUDY    40  33  76 E5        30.06R
GRAND JUNCTION LGT RAIN  55  40  56 W9        30.03R
RIFLE          MOCLDY    50  34  54 S6        30.04S
MONTROSE       CLOUDY    54  35  48 CALM      30.08R
CORTEZ         CLOUDY    47  46  97 E5        30.12S
PAGE, AZ       CLOUDY    58  39  49 S6        30.02S
GRAND CANYON   CLOUDY    39  38  96 CALM      30.11S
KINGMAN        CLOUDY    56  45  66 SE8       29.99R
FLAGSTAFF      PTCLDY    31  30  96 CALM      30.10S

$$

REGIONAL REPORTS    NEVADA/IDAHO/WYOMING

CITY           SKY/WX    TMP DP  RH WIND       PRES   REMARKS
LAS VEGAS, NV  MOCLDY    66  39  37 S13       29.88R
ELY            PTCLDY    38  22  52 S5        30.03R WCI  34
ELKO           PTCLDY    38  25  59 E5        30.01R WCI  34
POCATELLO, ID  CLEAR     31  22  69 CALM      30.02R
BURLEY         PTCLDY    34  27  75 CALM      30.00R
EVANSTON, WY   PTCLDY    38  30  73 NE6       30.06S WCI  33
ROCK SPRINGS   MOCLDY    41  29  62 SW6       30.05R

$$



USA.gov is the U.S. government's official web portal to all federal, state and local government web resources and services.